Time,TemperatureF,DewpointF,PressureIn,WindDirection,WindDirectionDegrees,WindSpeedMPH,WindSpeedGustMPH,Humidity,HourlyPrecipIn,Conditions,Clouds,dailyrainin,SoftwareType,DateUTC
2013-05-12 00:02:00,37.0,19.0,30.27,North,0,0.0,-999.0,47,-99.99,,,-99.99,,2013-05-12 05:02:00,
2013-05-12 00:11:00,37.0,19.0,30.27,North,0,0.0,-999.0,47,-99.99,,,-99.99,,2013-05-12 05:11:00,
2013-05-12 00:22:00,37.0,19.0,30.27,North,0,0.0,-999.0,47,-99.99,,,-99.99,,2013-05-12 05:22:00,
2013-05-12 00:32:00,37.0,19.0,30.27,North,-999,-999.0,-999.0,47,-99.99,,,-99.99,,2013-05-12 05:32:00,
2013-05-12 00:42:00,37.0,19.0,30.27,North,-999,-999.0,-999.0,47,-99.99,,,-99.99,,2013-05-12 05:42:00,
2013-05-12 00:52:00,36.0,19.0,30.28,North,0,0.0,-999.0,51,-99.99,,,-99.99,,2013-05-12 05:52:00,
2013-05-12 01:01:00,36.0,19.0,30.28,North,0,0.0,-999.0,51,-99.99,,,-99.99,,2013-05-12 06:01:00,
2013-05-12 01:11:00,36.0,21.0,30.28,North,-999,-999.0,-999.0,55,-99.99,,,-99.99,,2013-05-12 06:11:00,
2013-05-12 01:21:00,36.0,21.0,30.28,North,-999,-999.0,-999.0,55,-99.99,,,-99.99,,2013-05-12 06:21:00,
2013-05-12 01:32:00,34.0,21.0,30.28,North,0,0.0,-999.0,59,-99.99,,,-99.99,,2013-05-12 06:32:00,
2013-05-12 01:42:00,34.0,21.0,30.28,North,0,0.0,-999.0,59,-99.99,,,-99.99,,2013-05-12 06:42:00,
2013-05-12 01:51:00,34.0,21.0,30.28,North,0,0.0,-999.0,59,-99.99,,,-99.99,,2013-05-12 06:51:00,
2013-05-12 02:01:00,34.0,21.0,30.28,North,0,0.0,-999.0,59,-99.99,,,-99.99,,2013-05-12 07:01:00,
2013-05-12 02:11:00,34.0,21.0,30.28,North,0,0.0,-999.0,59,-99.99,,,-99.99,,2013-05-12 07:11:00,
2013-05-12 02:21:00,34.0,21.0,30.28,North,0,0.0,-999.0,59,-99.99,,,-99.99,,2013-05-12 07:21:00,
2013-05-12 02:32:00,30.0,21.0,30.28,North,-999,-999.0,-999.0,68,-99.99,,,-99.99,,2013-05-12 07:32:00,
2013-05-12 02:42:00,30.0,21.0,30.28,North,-999,-999.0,-999.0,68,-99.99,,,-99.99,,2013-05-12 07:42:00,
2013-05-12 02:52:00,32.0,21.0,30.28,North,0,0.0,-999.0,63,-99.99,,,-99.99,,2013-05-12 07:52:00,
2013-05-12 03:02:00,32.0,21.0,30.28,North,0,0.0,-999.0,63,-99.99,,,-99.99,,2013-05-12 08:02:00,
2013-05-12 03:11:00,32.0,25.0,30.28,North,-999,-999.0,-999.0,74,-99.99,,,-99.99,,2013-05-12 08:11:00,
2013-05-12 03:21:00,32.0,25.0,30.28,North,-999,-999.0,-999.0,74,-99.99,,,-99.99,,2013-05-12 08:21:00,
2013-05-12 03:32:00,30.0,25.0,30.27,North,-999,-999.0,-999.0,80,-99.99,,,-99.99,,2013-05-12 08:32:00,
2013-05-12 03:41:00,30.0,25.0,30.27,North,-999,-999.0,-999.0,80,-99.99,,,-99.99,,2013-05-12 08:41:00,
2013-05-12 03:52:00,30.0,23.0,30.27,North,-999,-999.0,-999.0,74,-99.99,,,-99.99,,2013-05-12 08:52:00,
2013-05-12 04:01:00,30.0,23.0,30.27,North,-999,-999.0,-999.0,74,-99.99,,,-99.99,,2013-05-12 09:01:00,
2013-05-12 04:11:00,30.0,21.0,30.27,North,-999,-999.0,-999.0,68,-99.99,,,-99.99,,2013-05-12 09:11:00,
2013-05-12 04:21:00,30.0,21.0,30.27,North,-999,-999.0,-999.0,68,-99.99,,,-99.99,,2013-05-12 09:21:00,
2013-05-12 04:33:00,28.0,21.0,30.27,North,-999,-999.0,-999.0,74,-99.99,,,-99.99,,2013-05-12 09:33:00,
2013-05-12 04:42:00,28.0,21.0,30.27,North,-999,-999.0,-999.0,74,-99.99,,,-99.99,,2013-05-12 09:42:00,
2013-05-12 04:52:00,28.0,21.0,30.27,North,0,0.0,-999.0,74,-99.99,,,-99.99,,2013-05-12 09:52:00,
2013-05-12 05:03:00,28.0,21.0,30.27,North,0,0.0,-999.0,74,-99.99,,,-99.99,,2013-05-12 10:03:00,
2013-05-12 05:12:00,28.0,21.0,30.27,North,0,0.0,-999.0,74,-99.99,,,-99.99,,2013-05-12 10:12:00,
2013-05-12 05:22:00,28.0,21.0,30.27,North,0,0.0,-999.0,74,-99.99,,,-99.99,,2013-05-12 10:22:00,
2013-05-12 05:33:00,27.0,19.0,30.27,North,0,0.0,-999.0,73,-99.99,,,-99.99,,2013-05-12 10:33:00,
2013-05-12 05:42:00,27.0,19.0,30.27,North,0,0.0,-999.0,73,-99.99,,,-99.99,,2013-05-12 10:42:00,
2013-05-12 05:52:00,27.0,21.0,30.27,North,-999,-999.0,-999.0,79,-99.99,,,-99.99,,2013-05-12 10:52:00,
2013-05-12 06:02:00,27.0,21.0,30.27,North,-999,-999.0,-999.0,79,-99.99,,,-99.99,,2013-05-12 11:02:00,
2013-05-12 06:12:00,27.0,19.0,30.28,North,0,0.0,-999.0,73,-99.99,,,-99.99,,2013-05-12 11:12:00,
2013-05-12 06:22:00,27.0,19.0,30.28,North,0,0.0,-999.0,73,-99.99,,,-99.99,,2013-05-12 11:22:00,
2013-05-12 06:32:00,27.0,19.0,30.28,North,0,0.0,-999.0,73,-99.99,,,-99.99,,2013-05-12 11:32:00,
2013-05-12 06:42:00,27.0,19.0,30.28,North,0,0.0,-999.0,73,-99.99,,,-99.99,,2013-05-12 11:42:00,
2013-05-12 06:51:00,27.0,19.0,30.28,North,-999,-999.0,-999.0,73,-99.99,,,-99.99,,2013-05-12 11:51:00,
2013-05-12 07:01:00,27.0,19.0,30.28,North,-999,-999.0,-999.0,73,-99.99,,,-99.99,,2013-05-12 12:01:00,
2013-05-12 07:11:00,27.0,21.0,30.28,North,-999,-999.0,-999.0,79,-99.99,,,-99.99,,2013-05-12 12:11:00,
2013-05-12 07:21:00,27.0,21.0,30.28,North,-999,-999.0,-999.0,79,-99.99,,,-99.99,,2013-05-12 12:21:00,
2013-05-12 07:32:00,30.0,25.0,30.28,North,-999,-999.0,-999.0,80,-99.99,,,-99.99,,2013-05-12 12:32:00,
2013-05-12 07:41:00,30.0,25.0,30.28,North,-999,-999.0,-999.0,80,-99.99,,,-99.99,,2013-05-12 12:41:00,
2013-05-12 07:51:00,34.0,27.0,30.28,North,0,0.0,-999.0,74,-99.99,,,-99.99,,2013-05-12 12:51:00,
2013-05-12 08:02:00,34.0,27.0,30.28,North,0,0.0,-999.0,74,-99.99,,,-99.99,,2013-05-12 13:02:00,
2013-05-12 08:11:00,37.0,27.0,30.28,North,-999,-999.0,-999.0,64,-99.99,,,-99.99,,2013-05-12 13:11:00,
2013-05-12 08:21:00,37.0,27.0,30.28,North,-999,-999.0,-999.0,64,-99.99,,,-99.99,,2013-05-12 13:21:00,
2013-05-12 08:32:00,41.0,27.0,30.28,North,0,0.0,-999.0,56,-99.99,,,-99.99,,2013-05-12 13:32:00,
2013-05-12 08:42:00,41.0,27.0,30.28,North,0,0.0,-999.0,56,-99.99,,,-99.99,,2013-05-12 13:42:00,
2013-05-12 08:52:00,45.0,27.0,30.28,North,0,0.0,-999.0,48,-99.99,,,-99.99,,2013-05-12 13:52:00,
2013-05-12 09:01:00,45.0,27.0,30.28,North,0,0.0,-999.0,48,-99.99,,,-99.99,,2013-05-12 14:01:00,
2013-05-12 09:11:00,46.0,27.0,30.28,North,0,0.0,-999.0,45,-99.99,,,-99.99,,2013-05-12 14:11:00,
2013-05-12 09:21:00,46.0,27.0,30.28,North,0,0.0,-999.0,45,-99.99,,,-99.99,,2013-05-12 14:21:00,
2013-05-12 09:31:00,48.0,25.0,30.28,North,0,0.0,-999.0,39,-99.99,,,-99.99,,2013-05-12 14:31:00,
2013-05-12 09:42:00,48.0,25.0,30.28,North,0,0.0,-999.0,39,-99.99,,,-99.99,,2013-05-12 14:42:00,
2013-05-12 09:52:00,48.0,19.0,30.28,North,0,0.0,-999.0,31,-99.99,,,-99.99,,2013-05-12 14:52:00,
2013-05-12 10:01:00,48.0,19.0,30.28,North,0,0.0,-999.0,31,-99.99,,,-99.99,,2013-05-12 15:01:00,
2013-05-12 10:11:00,48.0,19.0,30.28,North,0,0.0,-999.0,31,-99.99,,,-99.99,,2013-05-12 15:11:00,
2013-05-12 10:21:00,48.0,19.0,30.28,North,0,0.0,-999.0,31,-99.99,,,-99.99,,2013-05-12 15:21:00,
2013-05-12 10:34:00,50.0,19.0,30.28,North,0,0.0,-999.0,29,-99.99,,,-99.99,,2013-05-12 15:34:00,
2013-05-12 10:42:00,50.0,19.0,30.28,North,0,0.0,-999.0,29,-99.99,,,-99.99,,2013-05-12 15:42:00,
2013-05-12 10:53:00,52.0,19.0,30.27,North,350,6.0,-999.0,27,-99.99,,,-99.99,,2013-05-12 15:53:00,
2013-05-12 11:02:00,52.0,19.0,30.27,North,350,6.0,-999.0,27,-99.99,,,-99.99,,2013-05-12 16:02:00,
2013-05-12 11:12:00,54.0,19.0,30.27,North,-99,6.0,-999.0,25,-99.99,,,-99.99,,2013-05-12 16:12:00,
2013-05-12 11:23:00,54.0,19.0,30.27,North,-99,6.0,-999.0,25,-99.99,,,-99.99,,2013-05-12 16:23:00,
2013-05-12 11:33:00,54.0,19.0,30.27,NE,50,5.0,-999.0,25,-99.99,,,-99.99,,2013-05-12 16:33:00,
2013-05-12 11:42:00,54.0,19.0,30.27,NE,50,5.0,-999.0,25,-99.99,,,-99.99,,2013-05-12 16:42:00,
2013-05-12 11:52:00,54.0,18.0,30.27,NE,50,10.0,-999.0,23,-99.99,,,-99.99,,2013-05-12 16:52:00,
2013-05-12 12:02:00,54.0,18.0,30.27,NE,50,10.0,-999.0,23,-99.99,,,-99.99,,2013-05-12 17:02:00,
2013-05-12 12:12:00,54.0,19.0,30.27,North,0,0.0,-999.0,25,-99.99,,,-99.99,,2013-05-12 17:12:00,
2013-05-12 12:22:00,54.0,19.0,30.27,North,0,0.0,-999.0,25,-99.99,,,-99.99,,2013-05-12 17:22:00,
2013-05-12 12:32:00,54.0,19.0,30.26,North,0,0.0,-999.0,25,-99.99,,,-99.99,,2013-05-12 17:32:00,
2013-05-12 12:42:00,54.0,19.0,30.26,North,0,0.0,-999.0,25,-99.99,,,-99.99,,2013-05-12 17:42:00,
2013-05-12 12:52:00,55.0,21.0,30.25,North,350,7.0,-999.0,26,-99.99,,,-99.99,,2013-05-12 17:52:00,
2013-05-12 13:01:00,55.0,21.0,30.25,North,350,7.0,-999.0,26,-99.99,,,-99.99,,2013-05-12 18:01:00,
2013-05-12 13:12:00,55.0,21.0,30.25,North,350,7.0,-999.0,26,-99.99,,,-99.99,,2013-05-12 18:12:00,
2013-05-12 13:22:00,55.0,21.0,30.25,North,350,7.0,-999.0,26,-99.99,,,-99.99,,2013-05-12 18:22:00,
2013-05-12 13:32:00,57.0,19.0,30.24,West,260,7.0,-999.0,22,-99.99,,,-99.99,,2013-05-12 18:32:00,
2013-05-12 13:42:00,57.0,19.0,30.24,West,260,7.0,-999.0,22,-99.99,,,-99.99,,2013-05-12 18:42:00,
2013-05-12 13:52:00,57.0,18.0,30.23,WNW,290,7.0,-999.0,20,-99.99,,,-99.99,,2013-05-12 18:52:00,
2013-05-12 14:01:00,57.0,18.0,30.23,WNW,290,7.0,-999.0,20,-99.99,,,-99.99,,2013-05-12 19:01:00,
2013-05-12 14:11:00,57.0,19.0,30.23,North,0,0.0,-999.0,22,-99.99,,,-99.99,,2013-05-12 19:11:00,
2013-05-12 14:21:00,57.0,19.0,30.23,North,0,0.0,-999.0,22,-99.99,,,-99.99,,2013-05-12 19:21:00,
2013-05-12 14:32:00,57.0,19.0,30.22,North,350,8.0,-999.0,22,-99.99,,,-99.99,,2013-05-12 19:32:00,
2013-05-12 14:42:00,57.0,19.0,30.22,North,350,8.0,-999.0,22,-99.99,,,-99.99,,2013-05-12 19:42:00,
2013-05-12 14:52:00,59.0,21.0,30.21,North,0,0.0,-999.0,22,-99.99,,,-99.99,,2013-05-12 19:52:00,
2013-05-12 15:02:00,59.0,21.0,30.21,North,0,0.0,-999.0,22,-99.99,,,-99.99,,2013-05-12 20:02:00,
2013-05-12 15:11:00,59.0,19.0,30.20,WNW,290,8.0,-999.0,21,-99.99,,,-99.99,,2013-05-12 20:11:00,
2013-05-12 15:21:00,59.0,19.0,30.20,WNW,290,8.0,-999.0,21,-99.99,,,-99.99,,2013-05-12 20:21:00,
2013-05-12 15:32:00,59.0,21.0,30.20,South,170,7.0,-999.0,22,-99.99,,,-99.99,,2013-05-12 20:32:00,
2013-05-12 15:42:00,59.0,21.0,30.20,South,170,7.0,-999.0,22,-99.99,,,-99.99,,2013-05-12 20:42:00,
2013-05-12 15:51:00,61.0,19.0,30.19,WNW,300,8.0,-999.0,19,-99.99,,,-99.99,,2013-05-12 20:51:00,
2013-05-12 16:01:00,61.0,19.0,30.19,WNW,300,8.0,-999.0,19,-99.99,,,-99.99,,2013-05-12 21:01:00,
2013-05-12 16:11:00,61.0,19.0,30.19,WNW,300,8.0,-999.0,19,-99.99,,,-99.99,,2013-05-12 21:11:00,
2013-05-12 16:21:00,61.0,19.0,30.19,WNW,300,8.0,-999.0,19,-99.99,,,-99.99,,2013-05-12 21:21:00,
2013-05-12 16:33:00,61.0,19.0,30.18,North,0,0.0,-999.0,19,-99.99,,,-99.99,,2013-05-12 21:33:00,
2013-05-12 16:42:00,61.0,19.0,30.18,North,0,0.0,-999.0,19,-99.99,,,-99.99,,2013-05-12 21:42:00,
2013-05-12 16:53:00,63.0,21.0,30.18,NW,320,7.0,-999.0,20,-99.99,,,-99.99,,2013-05-12 21:53:00,
2013-05-12 17:02:00,63.0,21.0,30.18,NW,320,7.0,-999.0,20,-99.99,,,-99.99,,2013-05-12 22:02:00,
2013-05-12 17:12:00,63.0,19.0,30.17,North,0,0.0,-999.0,18,-99.99,,,-99.99,,2013-05-12 22:12:00,
2013-05-12 17:23:00,63.0,19.0,30.17,North,0,0.0,-999.0,18,-99.99,,,-99.99,,2013-05-12 22:23:00,
2013-05-12 17:33:00,63.0,21.0,30.16,North,0,0.0,-999.0,20,-99.99,,,-99.99,,2013-05-12 22:33:00,
2013-05-12 17:42:00,63.0,21.0,30.16,North,0,0.0,-999.0,20,-99.99,,,-99.99,,2013-05-12 22:42:00,
2013-05-12 17:52:00,63.0,18.0,30.16,North,-99,7.0,-999.0,17,-99.99,,,-99.99,,2013-05-12 22:52:00,
2013-05-12 18:02:00,63.0,18.0,30.16,North,-99,7.0,-999.0,17,-99.99,,,-99.99,,2013-05-12 23:02:00,
2013-05-12 18:12:00,63.0,19.0,30.15,SSW,210,5.0,-999.0,18,-99.99,,,-99.99,,2013-05-12 23:12:00,
2013-05-12 18:22:00,63.0,19.0,30.15,SSW,210,5.0,-999.0,18,-99.99,,,-99.99,,2013-05-12 23:22:00,
2013-05-12 18:32:00,64.0,18.0,30.15,West,280,7.0,-999.0,16,-99.99,,,-99.99,,2013-05-12 23:32:00,
2013-05-12 18:42:00,64.0,18.0,30.15,West,280,7.0,-999.0,16,-99.99,,,-99.99,,2013-05-12 23:42:00,
2013-05-12 18:52:00,64.0,19.0,30.14,SW,230,9.0,-999.0,17,-99.99,,,-99.99,,2013-05-12 23:52:00,
2013-05-12 19:01:00,64.0,19.0,30.14,SW,230,9.0,-999.0,17,-99.99,,,-99.99,,2013-05-13 00:01:00,
2013-05-12 19:11:00,64.0,19.0,30.13,West,280,7.0,-999.0,17,-99.99,,,-99.99,,2013-05-13 00:11:00,
2013-05-12 19:21:00,64.0,19.0,30.13,West,280,7.0,-999.0,17,-99.99,,,-99.99,,2013-05-13 00:21:00,
2013-05-12 19:32:00,63.0,19.0,30.13,West,260,6.0,-999.0,18,-99.99,,,-99.99,,2013-05-13 00:32:00,
2013-05-12 19:42:00,63.0,19.0,30.13,West,260,6.0,-999.0,18,-99.99,,,-99.99,,2013-05-13 00:42:00,
2013-05-12 19:51:00,63.0,19.0,30.13,North,0,0.0,-999.0,18,-99.99,,,-99.99,,2013-05-13 00:51:00,
2013-05-12 20:01:00,63.0,19.0,30.13,North,0,0.0,-999.0,18,-99.99,,,-99.99,,2013-05-13 01:01:00,
2013-05-12 20:11:00,63.0,19.0,30.13,North,0,0.0,-999.0,18,-99.99,,,-99.99,,2013-05-13 01:11:00,
2013-05-12 20:22:00,63.0,19.0,30.13,North,0,0.0,-999.0,18,-99.99,,,-99.99,,2013-05-13 01:22:00,
2013-05-12 20:31:00,63.0,21.0,30.13,North,0,0.0,-999.0,20,-99.99,,,-99.99,,2013-05-13 01:31:00,
2013-05-12 20:42:00,63.0,21.0,30.13,North,0,0.0,-999.0,20,-99.99,,,-99.99,,2013-05-13 01:42:00,
2013-05-12 20:52:00,61.0,19.0,30.12,North,0,0.0,-999.0,19,-99.99,,,-99.99,,2013-05-13 01:52:00,
2013-05-12 21:01:00,61.0,19.0,30.12,North,0,0.0,-999.0,19,-99.99,,,-99.99,,2013-05-13 02:01:00,
2013-05-12 21:11:00,55.0,25.0,30.12,North,0,0.0,-999.0,30,-99.99,,,-99.99,,2013-05-13 02:11:00,
2013-05-12 21:21:00,55.0,25.0,30.12,North,0,0.0,-999.0,30,-99.99,,,-99.99,,2013-05-13 02:21:00,
2013-05-12 21:32:00,52.0,25.0,30.12,North,0,0.0,-999.0,34,-99.99,,,-99.99,,2013-05-13 02:32:00,
2013-05-12 21:41:00,52.0,25.0,30.12,North,0,0.0,-999.0,34,-99.99,,,-99.99,,2013-05-13 02:41:00,
2013-05-12 21:51:00,52.0,27.0,30.12,ENE,70,5.0,-999.0,37,-99.99,,,-99.99,,2013-05-13 02:51:00,
2013-05-12 22:02:00,52.0,27.0,30.12,ENE,70,5.0,-999.0,37,-99.99,,,-99.99,,2013-05-13 03:02:00,
2013-05-12 22:11:00,48.0,27.0,30.12,North,0,0.0,-999.0,42,-99.99,,,-99.99,,2013-05-13 03:11:00,
2013-05-12 22:21:00,48.0,27.0,30.12,North,0,0.0,-999.0,42,-99.99,,,-99.99,,2013-05-13 03:21:00,
2013-05-12 22:32:00,46.0,27.0,30.13,North,0,0.0,-999.0,45,-99.99,,,-99.99,,2013-05-13 03:32:00,
2013-05-12 22:42:00,46.0,27.0,30.13,North,0,0.0,-999.0,45,-99.99,,,-99.99,,2013-05-13 03:42:00,
2013-05-12 22:52:00,46.0,28.0,30.13,North,0,0.0,-999.0,49,-99.99,,,-99.99,,2013-05-13 03:52:00,
2013-05-12 23:02:00,46.0,28.0,30.13,North,0,0.0,-999.0,49,-99.99,,,-99.99,,2013-05-13 04:02:00,
2013-05-12 23:12:00,46.0,27.0,30.12,North,0,0.0,-999.0,45,-99.99,,,-99.99,,2013-05-13 04:12:00,
2013-05-12 23:23:00,46.0,27.0,30.12,North,0,0.0,-999.0,45,-99.99,,,-99.99,,2013-05-13 04:23:00,
2013-05-12 23:32:00,46.0,27.0,30.12,North,0,0.0,-999.0,45,-99.99,,,-99.99,,2013-05-13 04:32:00,
2013-05-12 23:42:00,46.0,27.0,30.12,North,0,0.0,-999.0,45,-99.99,,,-99.99,,2013-05-13 04:42:00,
2013-05-12 23:52:00,46.0,27.0,30.11,North,0,0.0,-999.0,45,-99.99,,,-99.99,,2013-05-13 04:52:00,